| time (UTC) | temp C | wind direction | speed KPH | gust KPH | rain 1hr cm | rain 24hr cm | rain mn cm | humidity % | barometer mb |
| 20260502233633 | 8 | 291 | 0.0 | 1.6 | 0.00 | 0.00 | 0.00 | 47 | 4271.4 |
| 20260502233130 | 8 | 307 | 1.6 | 3.2 | 0.00 | 0.00 | 0.00 | 45 | 4271.5 |
| 20260502232626 | 8 | 282 | 4.8 | 4.8 | 0.00 | 0.00 | 0.00 | 45 | 4271.4 |
| 20260502232124 | 8 | 301 | 3.2 | 4.8 | 0.00 | 0.00 | 0.00 | 45 | 4271.5 |
| 20260502231620 | 8 | 295 | 0.0 | 0.0 | 0.00 | 0.00 | 0.00 | 49 | 4271.4 |
| 20260502231118 | 8 | 269 | 0.0 | 0.0 | 0.00 | 0.00 | 0.00 | 43 | 4271.5 |
| 20260502230616 | 8 | 261 | 9.7 | 11.3 | 0.00 | 0.00 | 0.00 | 46 | 4271.5 |
| 20260502230114 | 8 | 284 | 8.0 | 9.7 | 0.00 | 0.00 | 0.00 | 44 | 4271.7 |
| 20260502225609 | 8 | 306 | 0.0 | 0.0 | 0.00 | 0.00 | 0.00 | 46 | 4271.4 |
| 20260502225107 | 8 | 325 | 8.0 | 9.7 | 0.00 | 0.00 | 0.00 | 46 | 4271.5 |
| 20260502224603 | 8 | 301 | 11.3 | 12.9 | 0.00 | 0.00 | 0.00 | 45 | 4271.6 |
| 20260502224100 | 8 | 256 | 0.0 | 0.0 | 0.00 | 0.00 | 0.00 | 46 | 4271.6 |
| 20260502223557 | 8 | 324 | 6.4 | 11.3 | 0.00 | 0.00 | 0.00 | 47 | 4271.6 |
| 20260502223056 | 8 | 336 | 19.3 | 20.9 | 0.00 | 0.00 | 0.00 | 43 | 4271.5 |
| 20260502222553 | 8 | 303 | 8.0 | 11.3 | 0.00 | 0.00 | 0.00 | 45 | 4271.7 |
| 20260502222049 | 8 | 312 | 12.9 | 14.5 | 0.00 | 0.00 | 0.00 | 48 | 4271.6 |
| 20260502221545 | 8 | 289 | 9.7 | 11.3 | 0.00 | 0.00 | 0.00 | 44 | 4271.6 |
| 20260502221042 | 8 | 284 | 11.3 | 11.3 | 0.00 | 0.00 | 0.00 | 47 | 4271.7 |
| 20260502220538 | 8 | 332 | 12.9 | 14.5 | 0.00 | 0.00 | 0.00 | 48 | 4271.6 |
| 20260502220035 | 8 | 323 | 4.8 | 8.0 | 0.00 | 0.00 | 0.00 | 45 | 4271.6 |
| 20260502215532 | 8 | 331 | 9.7 | 12.9 | 0.00 | 0.00 | 0.00 | 46 | 4271.7 |
| 20260502215029 | 8 | 347 | 12.9 | 14.5 | 0.00 | 0.00 | 0.00 | 47 | 4271.8 |
| 20260502214526 | 8 | 300 | 9.7 | 12.9 | 0.00 | 0.00 | 0.00 | 46 | 4271.5 |
| 20260502214023 | 8 | 326 | 8.0 | 11.3 | 0.00 | 0.00 | 0.00 | 46 | 4271.6 |
| 20260502213520 | 8 | 337 | 9.7 | 11.3 | 0.00 | 0.00 | 0.00 | 46 | 4271.7 |
| 20260502213018 | 8 | 333 | 12.9 | 14.5 | 0.00 | 0.00 | 0.00 | 47 | 4271.5 |
| 20260502212517 | 8 | 282 | 12.9 | 16.1 | 0.00 | 0.00 | 0.00 | 46 | 4271.8 |
| 20260502212014 | 8 | 316 | 9.7 | 12.9 | 0.00 | 0.00 | 0.00 | 46 | 4271.5 |
| 20260502211509 | 8 | 305 | 4.8 | 8.0 | 0.00 | 0.00 | 0.00 | 45 | 4271.6 |
| 20260502211007 | 8 | 319 | 8.0 | 9.7 | 0.00 | 0.00 | 0.00 | 49 | 4271.6 |
| 20260502210503 | 8 | 330 | 11.3 | 12.9 | 0.00 | 0.00 | 0.00 | 50 | 4271.6 |
| 20260502210001 | 8 | 329 | 8.0 | 9.7 | 0.00 | 0.00 | 0.00 | 42 | 4271.4 |
| 20260502205456 | 8 | 335 | 11.3 | 11.3 | 0.00 | 0.00 | 0.00 | 47 | 4271.3 |
| 20260502204954 | 8 | 337 | 11.3 | 16.1 | 0.00 | 0.00 | 0.00 | 46 | 4271.5 |
| 20260502204451 | 8 | 337 | 19.3 | 24.1 | 0.00 | 0.00 | 0.00 | 47 | 4271.7 |
| 20260502203949 | 8 | 328 | 17.7 | 20.9 | 0.00 | 0.00 | 0.00 | 45 | 4271.6 |
| 20260502203446 | 8 | 329 | 16.1 | 20.9 | 0.00 | 0.00 | 0.00 | 46 | 4271.5 |
| 20260502202942 | 8 | 301 | 6.4 | 9.7 | 0.00 | 0.00 | 0.00 | 45 | 4271.5 |
| 20260502202439 | 8 | 305 | 4.8 | 4.8 | 0.00 | 0.00 | 0.00 | 47 | 4271.6 |
| 20260502201937 | 8 | 304 | 9.7 | 11.3 | 0.00 | 0.00 | 0.00 | 48 | 4271.6 |
| 20260502201432 | 8 | 324 | 11.3 | 12.9 | 0.00 | 0.00 | 0.00 | 46 | 4271.7 |
| 20260502200929 | 8 | 336 | 12.9 | 17.7 | 0.00 | 0.00 | 0.00 | 52 | 4271.8 |
| 20260502200425 | 8 | 299 | 8.0 | 9.7 | 0.00 | 0.00 | 0.00 | 48 | 4271.9 |
| 20260502195923 | 8 | 331 | 14.5 | 17.7 | 0.00 | 0.00 | 0.00 | 49 | 4271.8 |
| 20260502195420 | 8 | 297 | 4.8 | 8.0 | 0.00 | 0.00 | 0.00 | 45 | 4271.9 |
| 20260502194916 | 8 | 334 | 8.0 | 11.3 | 0.00 | 0.00 | 0.00 | 45 | 4272.0 |
| 20260502194414 | 8 | 324 | 14.5 | 14.5 | 0.00 | 0.00 | 0.00 | 45 | 4272.2 |
| 20260502193909 | 8 | 279 | 8.0 | 11.3 | 0.00 | 0.00 | 0.00 | 46 | 4272.0 |
| 20260502193407 | 8 | 324 | 8.0 | 11.3 | 0.00 | 0.00 | 0.00 | 50 | 4272.1 |
| 20260502192901 | 8 | 288 | 8.0 | 11.3 | 0.00 | 0.00 | 0.00 | 49 | 4272.2 |
| 20260502192359 | 8 | 302 | 9.7 | 11.3 | 0.00 | 0.00 | 0.00 | 50 | 4272.0 |
| 20260502191856 | 7 | 308 | 3.2 | 3.2 | 0.00 | 0.00 | 0.00 | 47 | 4272.2 |
| 20260502191354 | 8 | 322 | 11.3 | 12.9 | 0.00 | 0.00 | 0.00 | 48 | 4272.2 |
| 20260502190851 | 8 | 315 | 11.3 | 16.1 | 0.00 | 0.00 | 0.00 | 52 | 4272.1 |
| 20260502190348 | 8 | 296 | 4.8 | 8.0 | 0.00 | 0.00 | 0.00 | 48 | 4272.2 |
| 20260502185844 | 8 | 323 | 12.9 | 14.5 | 0.00 | 0.00 | 0.00 | 49 | 4272.4 |
| 20260502185340 | 8 | 314 | 6.4 | 8.0 | 0.00 | 0.00 | 0.00 | 49 | 4272.5 |
| 20260502184837 | 8 | 324 | 12.9 | 14.5 | 0.00 | 0.00 | 0.00 | 45 | 4272.3 |
| 20260502184332 | 7 | 335 | 19.3 | 20.9 | 0.00 | 0.00 | 0.00 | 47 | 4272.5 |
| 20260502183829 | 7 | 329 | 12.9 | 12.9 | 0.00 | 0.00 | 0.00 | 47 | 4272.4 |
| 20260502183325 | 7 | 264 | 8.0 | 9.7 | 0.00 | 0.00 | 0.00 | 51 | 4272.4 |
| 20260502182820 | 7 | 296 | 9.7 | 11.3 | 0.00 | 0.00 | 0.00 | 53 | 4272.6 |
| 20260502182316 | 8 | 276 | 6.4 | 8.0 | 0.00 | 0.00 | 0.00 | 46 | 4272.4 |
| 20260502181813 | 8 | 272 | 3.2 | 8.0 | 0.00 | 0.00 | 0.00 | 48 | 4272.4 |
| 20260502181312 | 8 | 274 | 11.3 | 14.5 | 0.00 | 0.00 | 0.00 | 46 | 4272.6 |
| 20260502180809 | 8 | 299 | 9.7 | 11.3 | 0.00 | 0.00 | 0.00 | 47 | 4272.7 |
| 20260502180306 | 8 | 281 | 12.9 | 14.5 | 0.00 | 0.00 | 0.00 | 47 | 4272.8 |
| 20260502170226 | 7 | 305 | 4.8 | 8.0 | 0.00 | 0.00 | 0.00 | 48 | 4273.0 |
| 20260502164213 | 7 | 307 | 6.4 | 8.0 | 0.00 | 0.00 | 0.00 | 57 | 4273.2 |
| 20260502163708 | 7 | 339 | 14.5 | 17.7 | 0.00 | 0.00 | 0.00 | 54 | 4273.1 |
| 20260502163205 | 7 | 341 | 12.9 | 12.9 | 0.00 | 0.00 | 0.00 | 55 | 4273.2 |
| 20260502162702 | 6 | 334 | 9.7 | 11.3 | 0.00 | 0.00 | 0.00 | 50 | 4273.4 |
| 20260502162159 | 7 | 332 | 11.3 | 12.9 | 0.00 | 0.00 | 0.00 | 52 | 4273.3 |
| 20260502161656 | 6 | 327 | 14.5 | 16.1 | 0.00 | 0.00 | 0.00 | 54 | 4273.5 |
| 20260502161152 | 6 | 323 | 11.3 | 14.5 | 0.00 | 0.00 | 0.00 | 55 | 4273.4 |
| 20260502160651 | 6 | 323 | 11.3 | 12.9 | 0.00 | 0.00 | 0.00 | 56 | 4273.4 |
| 20260502160150 | 6 | 305 | 8.0 | 8.0 | 0.00 | 0.00 | 0.00 | 56 | 4273.5 |
| 20260502152109 | 6 | 327 | 14.5 | 16.1 | 0.00 | 0.00 | 0.00 | 55 | 4273.2 |
| 20260502151606 | 6 | 338 | 17.7 | 20.9 | 0.00 | 0.00 | 0.00 | 58 | 4273.1 |
| 20260502151104 | 6 | 326 | 12.9 | 14.5 | 0.00 | 0.00 | 0.00 | 56 | 4273.1 |
| 20260502150601 | 7 | 328 | 9.7 | 12.9 | 0.00 | 0.00 | 0.00 | 61 | 4273.0 |
| 20260502130446 | 5 | 329 | 22.5 | 27.4 | 0.00 | 0.00 | 0.00 | 76 | 4272.6 |
| 20260502123428 | 4 | 329 | 14.5 | 16.1 | 0.00 | 0.00 | 0.00 | 78 | 4272.4 |
| 20260502122926 | 3 | 332 | 11.3 | 12.9 | 0.00 | 0.00 | 0.00 | 79 | 4272.7 |
| 20260502122422 | 3 | 320 | 11.3 | 14.5 | 0.00 | 0.00 | 0.00 | 79 | 4272.6 |
| 20260502121920 | 3 | 311 | 9.7 | 11.3 | 0.00 | 0.00 | 0.00 | 79 | 4272.6 |
| 20260502121417 | 3 | 294 | 8.0 | 9.7 | 0.00 | 0.00 | 0.00 | 79 | 4272.6 |
| 20260502120914 | 3 | 313 | 8.0 | 11.3 | 0.00 | 0.00 | 0.00 | 80 | 4272.6 |
| 20260502120410 | 3 | 327 | 4.8 | 9.7 | 0.00 | 0.00 | 0.00 | 81 | 4272.4 |
| 20260502115908 | 2 | 329 | 8.0 | 9.7 | 0.00 | 0.00 | 0.00 | 82 | 4272.6 |
| 20260502115405 | 2 | 299 | 8.0 | 12.9 | 0.00 | 0.00 | 0.00 | 82 | 4272.4 |
| 20260502114901 | 2 | 314 | 8.0 | 9.7 | 0.00 | 0.00 | 0.00 | 82 | 4272.3 |
| 20260502114358 | 2 | 315 | 8.0 | 9.7 | 0.00 | 0.00 | 0.00 | 82 | 4272.4 |
| 20260502113855 | 2 | 302 | 4.8 | 4.8 | 0.00 | 0.00 | 0.00 | 82 | 4272.3 |
| 20260502113352 | 2 | 302 | 0.0 | 0.0 | 0.00 | 0.00 | 0.00 | 82 | 4272.3 |
| 20260502112851 | 2 | 299 | 0.0 | 0.0 | 0.00 | 0.00 | 0.00 | 82 | 4272.3 |
| 20260502112348 | 2 | 302 | 0.0 | 0.0 | 0.00 | 0.00 | 0.00 | 82 | 4272.4 |
| 20260502111845 | 2 | 303 | 0.0 | 0.0 | 0.00 | 0.00 | 0.00 | 82 | 4272.2 |
| 20260502111342 | 2 | 304 | 0.0 | 0.0 | 0.00 | 0.00 | 0.00 | 82 | 4272.2 |
| 20260502110840 | 2 | 312 | 0.0 | 0.0 | 0.00 | 0.00 | 0.00 | 82 | 4272.2 |
| 20260502110338 | 2 | 308 | 1.6 | 1.6 | 0.00 | 0.00 | 0.00 | 82 | 4272.2 |
| 20260502105835 | 2 | 323 | 4.8 | 4.8 | 0.00 | 0.00 | 0.00 | 82 | 4272.2 |
| 20260502105332 | 2 | 322 | 4.8 | 4.8 | 0.00 | 0.00 | 0.00 | 81 | 4272.2 |
| 20260502104830 | 2 | 298 | 8.0 | 9.7 | 0.00 | 0.00 | 0.00 | 81 | 4272.2 |
| 20260502104327 | 2 | 272 | 6.4 | 8.0 | 0.00 | 0.00 | 0.00 | 81 | 4272.0 |
| 20260502103824 | 3 | 265 | 9.7 | 11.3 | 0.00 | 0.00 | 0.00 | 82 | 4272.1 |
| 20260502103321 | 3 | 320 | 0.0 | 0.0 | 0.00 | 0.00 | 0.00 | 81 | 4272.1 |
| 20260502102818 | 3 | 316 | 0.0 | 0.0 | 0.00 | 0.00 | 0.00 | 81 | 4271.9 |
| 20260502102314 | 3 | 315 | 0.0 | 0.0 | 0.00 | 0.00 | 0.00 | 81 | 4271.8 |
| 20260502101813 | 3 | 315 | 0.0 | 0.0 | 0.00 | 0.00 | 0.00 | 81 | 4271.8 |
| 20260502101310 | 3 | 316 | 0.0 | 0.0 | 0.00 | 0.00 | 0.00 | 80 | 4271.8 |
| 20260502100808 | 3 | 327 | 4.8 | 4.8 | 0.00 | 0.00 | 0.00 | 80 | 4271.9 |
| 20260502100308 | 3 | 322 | 9.7 | 11.3 | 0.00 | 0.00 | 0.00 | 80 | 4271.8 |
| 20260502091241 | 2 | 314 | 4.8 | 4.8 | 0.00 | 0.00 | 0.00 | 77 | 4271.7 |
| 20260502090738 | 2 | 303 | 8.0 | 9.7 | 0.00 | 0.00 | 0.00 | 77 | 4271.7 |
| 20260502090235 | 2 | 278 | 8.0 | 9.7 | 0.00 | 0.00 | 0.00 | 77 | 4271.7 |
| 20260502071136 | 3 | 305 | 11.3 | 14.5 | 0.00 | 0.00 | 0.00 | 74 | 4271.3 |
| 20260502070634 | 3 | 281 | 14.5 | 16.1 | 0.00 | 0.00 | 0.00 | 73 | 4271.2 |
| 20260502070131 | 3 | 305 | 12.9 | 16.1 | 0.00 | 0.00 | 0.00 | 75 | 4271.2 |
| 20260502065630 | 3 | 297 | 11.3 | 12.9 | 0.00 | 0.00 | 0.00 | 76 | 4271.1 |
| 20260502065127 | 3 | 315 | 9.7 | 11.3 | 0.00 | 0.00 | 0.00 | 76 | 4271.4 |
| 20260502064626 | 3 | 314 | 8.0 | 9.7 | 0.00 | 0.00 | 0.00 | 75 | 4271.3 |
| 20260502064122 | 3 | 307 | 8.0 | 9.7 | 0.00 | 0.00 | 0.00 | 75 | 4271.6 |
| 20260502063620 | 3 | 316 | 12.9 | 14.5 | 0.00 | 0.00 | 0.00 | 73 | 4271.3 |
| 20260502063117 | 3 | 330 | 9.7 | 12.9 | 0.00 | 0.00 | 0.00 | 75 | 4271.6 |
| 20260502062614 | 3 | 323 | 9.7 | 11.3 | 0.00 | 0.00 | 0.00 | 76 | 4271.4 |
| 20260502062112 | 3 | 307 | 9.7 | 14.5 | 0.00 | 0.00 | 0.00 | 76 | 4271.6 |
| 20260502061610 | 3 | 315 | 11.3 | 14.5 | 0.00 | 0.00 | 0.00 | 76 | 4271.5 |
| 20260502061108 | 4 | 295 | 8.0 | 9.7 | 0.00 | 0.00 | 0.00 | 78 | 4271.4 |
| 20260502060607 | 3 | 280 | 11.3 | 16.1 | 0.00 | 0.00 | 0.00 | 80 | 4271.4 |
| 20260502060104 | 3 | 295 | 8.0 | 9.7 | 0.00 | 0.00 | 0.00 | 81 | 4271.6 |
| 20260502055602 | 4 | 277 | 8.0 | 11.3 | 0.00 | 0.00 | 0.00 | 81 | 4271.7 |
| 20260502055100 | 4 | 275 | 6.4 | 11.3 | 0.00 | 0.00 | 0.00 | 80 | 4271.7 |
| 20260502054559 | 4 | 271 | 0.0 | 0.0 | 0.00 | 0.00 | 0.00 | 80 | 4271.7 |
| 20260502054055 | 4 | 275 | 0.0 | 0.0 | 0.00 | 0.00 | 0.00 | 79 | 4271.7 |
| 20260502053552 | 4 | 293 | 12.9 | 12.9 | 0.00 | 0.00 | 0.00 | 80 | 4271.4 |
| 20260502053050 | 4 | 289 | 8.0 | 9.7 | 0.00 | 0.00 | 0.00 | 81 | 4271.6 |
| 20260502052549 | 4 | 275 | 8.0 | 9.7 | 0.00 | 0.00 | 0.00 | 81 | 4271.5 |
| 20260502052046 | 4 | 284 | 6.4 | 9.7 | 0.00 | 0.00 | 0.00 | 82 | 4271.7 |
| 20260502051544 | 4 | 284 | 0.0 | 0.0 | 0.00 | 0.00 | 0.00 | 81 | 4271.6 |
| 20260502051042 | 5 | 295 | 4.8 | 4.8 | 0.00 | 0.00 | 0.00 | 81 | 4271.6 |
| 20260502050537 | 5 | 275 | 8.0 | 9.7 | 0.00 | 0.00 | 0.00 | 81 | 4271.9 |
| 20260502050035 | 5 | 289 | 4.8 | 8.0 | 0.00 | 0.00 | 0.00 | 80 | 4271.6 |
| 20260502045531 | 5 | 278 | 4.8 | 8.0 | 0.00 | 0.00 | 0.00 | 80 | 4271.8 |
| 20260502045029 | 5 | 269 | 8.0 | 11.3 | 0.00 | 0.00 | 0.00 | 80 | 4271.7 |
| 20260502044525 | 5 | 249 | 9.7 | 11.3 | 0.00 | 0.00 | 0.00 | 81 | 4271.8 |
| 20260502044021 | 5 | 246 | 6.4 | 8.0 | 0.00 | 0.00 | 0.00 | 82 | 4271.8 |
| 20260502043519 | 5 | 257 | 0.0 | 0.0 | 0.00 | 0.00 | 0.00 | 82 | 4271.8 |
| 20260502043015 | 5 | 295 | 0.0 | 1.6 | 0.00 | 0.00 | 0.00 | 82 | 4271.8 |
| 20260502042510 | 5 | 295 | 0.0 | 0.0 | 0.00 | 0.00 | 0.00 | 82 | 4271.7 |
| 20260502042008 | 5 | 291 | 0.0 | 0.0 | 0.00 | 0.00 | 0.00 | 82 | 4271.7 |
| 20260502041506 | 5 | 290 | 0.0 | 0.0 | 0.00 | 0.00 | 0.00 | 82 | 4271.8 |
| 20260502041003 | 5 | 290 | 0.0 | 0.0 | 0.00 | 0.00 | 0.00 | 82 | 4271.6 |
| 20260502040459 | 5 | 291 | 0.0 | 0.0 | 0.00 | 0.00 | 0.00 | 81 | 4271.9 |
| 20260502035955 | 5 | 295 | 0.0 | 0.0 | 0.00 | 0.99 | 0.99 | 80 | 4271.7 |
| 20260502035451 | 5 | 295 | 0.0 | 0.0 | 0.00 | 0.99 | 0.99 | 79 | 4271.6 |
| 20260502034950 | 5 | 295 | 0.0 | 0.0 | 0.00 | 0.99 | 0.99 | 78 | 4271.5 |
| 20260502034448 | 5 | 295 | 0.0 | 0.0 | 0.00 | 0.99 | 0.99 | 78 | 4271.5 |
| 20260502033946 | 5 | 293 | 3.2 | 4.8 | 0.00 | 0.99 | 0.99 | 78 | 4271.5 |
| 20260502033443 | 6 | 300 | 3.2 | 3.2 | 0.00 | 0.99 | 0.99 | 78 | 4271.7 |
| 20260502032939 | 6 | 300 | 3.2 | 3.2 | 0.00 | 0.99 | 0.99 | 78 | 4271.5 |
| 20260502032436 | 6 | 312 | 3.2 | 4.8 | 0.00 | 0.99 | 0.99 | 78 | 4271.4 |
| 20260502031933 | 6 | 319 | 3.2 | 3.2 | 0.00 | 0.99 | 0.99 | 77 | 4271.3 |
| 20260502031432 | 6 | 306 | 6.4 | 8.0 | 0.00 | 0.99 | 0.99 | 77 | 4271.5 |
| 20260502030930 | 6 | 296 | 4.8 | 8.0 | 0.00 | 0.99 | 0.99 | 77 | 4271.4 |
| 20260502030428 | 6 | 287 | 4.8 | 4.8 | 0.00 | 0.99 | 0.99 | 78 | 4271.3 |
| 20260502025925 | 6 | 297 | 0.0 | 0.0 | 0.00 | 0.99 | 0.99 | 80 | 4271.2 |
| 20260502025422 | 6 | 311 | 0.0 | 0.0 | 0.00 | 0.99 | 0.99 | 79 | 4271.3 |
| 20260502024920 | 6 | 323 | 6.4 | 8.0 | 0.00 | 0.99 | 0.99 | 77 | 4271.3 |
| 20260502024418 | 6 | 324 | 6.4 | 9.7 | 0.00 | 0.99 | 0.99 | 77 | 4271.3 |
| 20260502023915 | 6 | 321 | 6.4 | 8.0 | 0.00 | 0.99 | 0.99 | 76 | 4271.1 |
| 20260502023413 | 6 | 323 | 8.0 | 9.7 | 0.00 | 0.99 | 0.99 | 76 | 4271.1 |
| 20260502022910 | 6 | 307 | 1.6 | 4.8 | 0.00 | 0.99 | 0.99 | 77 | 4270.9 |
| 20260502022406 | 6 | 301 | 0.0 | 0.0 | 0.00 | 0.99 | 0.99 | 77 | 4271.3 |
| 20260502021903 | 6 | 299 | 0.0 | 0.0 | 0.00 | 0.99 | 0.99 | 77 | 4271.1 |
| 20260502021401 | 6 | 291 | 0.0 | 0.0 | 0.00 | 0.99 | 0.99 | 78 | 4270.9 |
| 20260502020858 | 6 | 279 | 0.0 | 0.0 | 0.00 | 0.99 | 0.99 | 78 | 4271.0 |
| 20260502020356 | 6 | 307 | 0.0 | 0.0 | 0.00 | 0.99 | 0.99 | 79 | 4270.9 |
| 20260502015852 | 6 | 318 | 0.0 | 0.0 | 0.00 | 0.99 | 0.99 | 79 | 4270.8 |
| 20260502015349 | 6 | 324 | 1.6 | 3.2 | 0.00 | 0.99 | 0.99 | 78 | 4270.7 |
| 20260502014847 | 6 | 322 | 3.2 | 3.2 | 0.00 | 0.99 | 0.99 | 77 | 4270.8 |
| 20260502014344 | 6 | 325 | 4.8 | 4.8 | 0.00 | 0.99 | 0.99 | 75 | 4270.6 |
| 20260502013839 | 6 | 322 | 6.4 | 9.7 | 0.00 | 0.99 | 0.99 | 74 | 4270.4 |
| 20260502013335 | 6 | 317 | 4.8 | 4.8 | 0.00 | 0.99 | 0.99 | 76 | 4270.7 |
| 20260502012832 | 6 | 313 | 3.2 | 4.8 | 0.00 | 0.99 | 0.99 | 77 | 4270.3 |
| 20260502012330 | 6 | 301 | 0.0 | 0.0 | 0.00 | 0.99 | 0.99 | 78 | 4270.2 |
| 20260502011827 | 6 | 288 | 0.0 | 0.0 | 0.00 | 0.99 | 0.99 | 79 | 4270.3 |
| 20260502011323 | 6 | 298 | 0.0 | 0.0 | 0.00 | 0.99 | 0.99 | 79 | 4270.3 |
| 20260502010821 | 6 | 293 | 0.0 | 0.0 | 0.00 | 0.99 | 0.99 | 78 | 4270.0 |
| 20260502010317 | 6 | 293 | 0.0 | 0.0 | 0.00 | 0.99 | 0.99 | 77 | 4270.1 |
| 20260502005814 | 6 | 291 | 0.0 | 0.0 | 0.00 | 0.99 | 0.99 | 76 | 4270.1 |
| 20260502005312 | 7 | 283 | 1.6 | 3.2 | 0.00 | 0.99 | 0.99 | 76 | 4270.0 |
| 20260502004809 | 7 | 273 | 3.2 | 4.8 | 0.00 | 0.99 | 0.99 | 75 | 4270.3 |
| 20260502004305 | 7 | 253 | 4.8 | 4.8 | 0.00 | 0.99 | 0.99 | 76 | 4270.2 |
| 20260502003803 | 7 | 262 | 11.3 | 12.9 | 0.00 | 0.99 | 0.99 | 74 | 4270.3 |
| 20260502003259 | 7 | 327 | 12.9 | 16.1 | 0.00 | 0.99 | 0.99 | 74 | 4270.0 |
| 20260502002755 | 7 | 317 | 17.7 | 17.7 | 0.00 | 0.99 | 0.99 | 72 | 4269.9 |
| 20260502002253 | 7 | 327 | 16.1 | 17.7 | 0.00 | 0.99 | 0.99 | 71 | 4269.9 |
| 20260502001750 | 7 | 331 | 19.3 | 22.5 | 0.00 | 0.99 | 0.99 | 72 | 4270.1 |
| 20260502001248 | 7 | 338 | 19.3 | 25.7 | 0.00 | 0.99 | 0.99 | 75 | 4269.9 |
| 20260502000746 | 7 | 247 | 8.0 | 9.7 | 0.00 | 0.99 | 0.99 | 79 | 4269.8 |
| 20260502000244 | 7 | 252 | 0.0 | 0.0 | 0.00 | 0.99 | 0.99 | 79 | 4269.6 |
| 20260501235738 | 6 | 228 | 0.0 | 0.0 | 0.00 | 0.99 | 0.99 | 79 | 4269.5 |
| 20260501235235 | 6 | 264 | 0.0 | 0.0 | 0.00 | 0.99 | 0.99 | 80 | 4269.4 |
| 20260501234731 | 6 | 271 | 0.0 | 0.0 | 0.00 | 0.99 | 0.99 | 81 | 4269.5 |
| 20260501234228 | 6 | 272 | 0.0 | 0.0 | 0.00 | 0.99 | 0.99 | 81 | 4269.7 |